NI2O Weather Reports


Display with metric or nautical units.
time (UTC)temp
F
wind
direction
speed
MPH
gust
MPH
rain 1hr
in
rain 24hr
in
rain mn
in
humidity
%
barometer
mb
20260507010343 66 196 2.0 2.0 0.00 0.00 0.00 85 1008.0
20260507005329 66 208 2.0 3.0 0.00 0.00 0.00 85 1008.3
20260507004315 66 211 1.0 2.0 0.00 0.00 0.00 85 1008.1
20260507003301 66 227 3.0 4.0 0.00 0.00 0.00 84 1007.8
20260507002247 66 223 2.0 3.0 0.00 0.00 0.00 84 1007.5
20260507001235 66 217 4.0 4.0 0.00 0.00 0.00 84 1007.5
20260507000222 66 190 4.0 4.0 0.00 0.00 0.00 83 1007.4
20260506235247 66 260 2.0 6.0 0.00 0.00 0.00 83 1007.5
20260506234153 66 196 3.0 6.0 0.00 0.00 0.00 83 1007.4
20260506233139 67 239 4.0 7.0 0.00 0.00 0.00 83 1007.4
20260506232126 67 185 2.0 3.0 0.00 0.00 0.00 81 1007.2
20260506231112 67 202 5.0 6.0 0.00 0.00 0.00 81 1007.2
20260506230058 67 240 4.0 6.0 0.00 0.00 0.00 81 1007.3
20260506225104 68 190 3.0 3.0 0.00 0.00 0.00 81 1007.2
20260506224031 68 213 1.0 4.0 0.00 0.00 0.00 81 1007.2
20260506223017 67 216 2.0 6.0 0.00 0.00 0.00 82 1007.2
20260506222004 67 223 2.0 4.0 0.00 0.00 0.00 82 1007.2
20260506220949 67 219 4.0 8.0 0.00 0.00 0.00 82 1007.4
20260506215936 68 206 4.0 8.0 0.00 0.00 0.00 81 1007.1
20260506214923 68 154 5.0 7.0 0.00 0.00 0.00 80 1007.2
20260506213928 68 195 2.0 7.0 0.00 0.00 0.00 81 1006.8
20260506212854 67 224 4.0 7.0 0.00 0.00 0.00 81 1007.1
20260506211842 67 208 3.0 6.0 0.00 0.00 0.00 82 1006.9
20260506210827 66 207 2.0 8.0 0.00 0.00 0.00 83 1006.9
20260506205813 66 221 3.0 6.0 0.00 0.00 0.00 83 1006.8
20260506204759 66 208 6.0 8.0 0.00 0.00 0.00 83 1007.0
20260506203745 65 199 4.0 10.0 0.00 0.00 0.00 85 1006.6
20260506202732 65 243 4.0 6.0 0.00 0.00 0.00 85 1006.7
20260506201719 65 212 2.0 6.0 0.00 0.00 0.00 85 1006.9
20260506200726 64 224 3.0 7.0 0.00 0.00 0.00 86 1006.9
20260506195651 64 247 3.0 10.0 0.00 0.00 0.00 86 1007.0
20260506194637 64 178 8.0 10.0 0.00 0.00 0.00 87 1006.9
20260506194146 64 213 8.0 10.0 0.00 0.00 0.00 87 1007.0
20260506193134 63 155 1.0 8.0 0.00 0.00 0.00 89 1007.1
20260506192059 63 216 4.0 11.0 0.00 0.00 0.00 89 1007.4
20260506191105 62 245 6.0 13.0 0.00 0.00 0.00 89 1007.4
20260506190033 62 217 4.0 7.0 0.00 0.00 0.00 89 1007.6
20260506185016 62 245 4.0 6.0 0.00 0.00 0.00 89 1007.4
20260506184003 62 212 2.0 8.0 0.00 0.00 0.00 90 1007.7
20260506182948 62 198 3.0 14.0 0.00 0.00 0.00 91 1007.6
20260506182016 61 218 7.0 10.0 0.00 0.00 0.00 92 1007.7
20260506180922 61 209 4.0 6.0 0.00 0.00 0.00 93 1007.7
20260506175907 62 198 3.0 9.0 0.00 0.00 0.00 91 1007.9
20260506174854 62 217 4.0 13.0 0.00 0.00 0.00 90 1008.0
20260506173841 62 184 4.0 10.0 0.00 0.00 0.00 91 1008.0
20260506172850 62 238 4.0 9.0 0.00 0.00 0.00 91 1007.9
20260506171812 61 190 8.0 11.0 0.00 0.00 0.00 92 1008.2
20260506170758 61 218 6.0 14.0 0.00 0.00 0.00 93 1008.0
20260506165744 62 216 1.0 10.0 0.00 0.00 0.00 93 1007.8
20260506164729 62 186 7.0 10.0 0.00 0.00 0.00 93 1007.8
20260506163717 61 194 7.0 10.0 0.00 0.00 0.00 93 1008.1
20260506162721 61 187 4.0 8.0 0.00 0.00 0.00 93 1007.9
20260506161648 61 202 1.0 9.0 0.00 0.00 0.00 93 1008.5
20260506160634 61 180 4.0 7.0 0.00 0.00 0.00 93 1008.9
20260506155621 61 191 7.0 9.0 0.00 0.00 0.00 92 1009.4
20260506154626 61 205 4.0 8.0 0.00 0.00 0.00 92 1009.4
20260506153614 61 228 4.0 9.0 0.00 0.00 0.00 91 1009.3
20260506152539 61 177 3.0 11.0 0.00 0.00 0.00 89 1009.1
20260506151525 62 188 2.0 4.0 0.00 0.00 0.00 88 1008.8
20260506150511 62 217 3.0 7.0 0.00 0.00 0.00 88 1009.4
20260506145457 63 209 6.0 9.0 0.00 0.00 0.00 85 1009.1
20260506144443 63 135 4.0 7.0 0.00 0.00 0.00 85 1009.1
20260506143429 63 201 3.0 9.0 0.00 0.00 0.00 82 1009.3
20260506142415 64 232 5.0 9.0 0.00 0.00 0.00 79 1009.3
20260506141403 66 217 7.0 11.0 0.00 0.00 0.00 75 1009.3
20260506140347 66 207 1.0 10.0 0.00 0.00 0.00 74 1008.8
20260506135353 67 171 6.0 9.0 0.00 0.00 0.00 73 1009.0
20260506134319 66 188 4.0 14.0 0.00 0.00 0.00 74 1008.9
20260506133307 65 177 4.0 13.0 0.00 0.00 0.00 75 1009.1
20260506132252 66 258 7.0 13.0 0.00 0.00 0.00 74 1009.1
20260506131238 66 250 4.0 17.0 0.00 0.00 0.00 74 1009.3
20260506130245 66 228 7.0 10.0 0.00 0.00 0.00 74 1009.4
20260506125210 66 245 8.0 14.0 0.00 0.00 0.00 73 1009.4
20260506124218 66 206 6.0 10.0 0.00 0.00 0.00 73 1009.0
20260506123144 65 243 4.0 13.0 0.00 0.00 0.00 75 1009.0
20260506122131 65 161 3.0 8.0 0.00 0.00 0.00 76 1009.0
20260506121116 65 191 6.0 11.0 0.00 0.00 0.00 76 1008.8
20260506115049 64 185 6.0 8.0 0.00 0.00 0.00 78 1008.9
20260506114035 64 176 6.0 10.0 0.00 0.00 0.00 79 1008.8
20260506113021 64 212 6.0 11.0 0.00 0.00 0.00 79 1008.9
20260506112008 63 208 5.0 8.0 0.00 0.00 0.00 80 1008.8
20260506110954 63 179 4.0 11.0 0.00 0.00 0.00 80 1009.0
20260506105940 63 173 8.0 11.0 0.00 0.00 0.00 80 1008.9
20260506104926 63 212 4.0 4.0 0.00 0.00 0.00 81 1008.9
20260506103913 63 202 3.0 9.0 0.00 0.00 0.00 81 1008.7
20260506102920 63 177 3.0 8.0 0.00 0.00 0.00 81 1008.7
20260506101846 63 197 4.0 13.0 0.00 0.00 0.00 81 1008.8
20260506100833 63 190 2.0 7.0 0.00 0.00 0.00 81 1008.8
20260506095819 63 183 1.0 8.0 0.00 0.00 0.00 81 1009.0
20260506094805 63 175 4.0 6.0 0.00 0.00 0.00 81 1009.0
20260506093751 63 202 4.0 7.0 0.00 0.00 0.00 80 1009.0
20260506092738 64 154 4.0 10.0 0.00 0.00 0.00 80 1008.7
20260506091724 64 206 4.0 7.0 0.00 0.00 0.00 79 1008.9
20260506090713 64 145 2.0 9.0 0.00 0.00 0.00 79 1008.9
20260506085656 64 163 4.0 9.0 0.00 0.00 0.00 79 1009.0
20260506085146 64 193 2.0 8.0 0.00 0.00 0.00 79 1009.0
20260506084132 64 187 2.0 13.0 0.00 0.00 0.00 78 1009.0
20260506083138 65 181 2.0 9.0 0.00 0.00 0.00 78 1009.0
20260506082106 65 188 5.0 9.0 0.00 0.00 0.00 78 1008.9
20260506081051 65 190 2.0 7.0 0.00 0.00 0.00 77 1009.0
20260506072956 66 201 1.0 9.0 0.00 0.00 0.00 75 1009.1
20260506071942 66 219 3.0 10.0 0.00 0.00 0.00 74 1009.1
20260506070928 66 198 1.0 6.0 0.00 0.00 0.00 73 1009.2
20260506061821 66 203 5.0 8.0 0.00 0.00 0.00 72 1009.5
20260506060806 66 211 3.0 7.0 0.00 0.00 0.00 72 1009.6
20260506050707 66 182 5.0 7.0 0.00 0.00 0.00 70 1010.0
20260506044620 67 173 4.0 6.0 0.00 0.00 0.00 69 1010.1
20260506043605 67 178 5.0 6.0 0.00 0.00 0.00 69 1010.2
20260506042613 67 185 6.0 13.0 0.00 0.00 0.00 68 1010.2
20260506041557 67 179 3.0 10.0 0.00 0.00 0.00 67 1010.0
20260506040544 67 185 1.0 6.0 0.00 0.00 0.00 67 1010.0
20260506035530 67 201 3.0 6.0 0.00 0.00 0.00 66 1010.3
20260506034516 67 169 2.0 7.0 0.00 0.00 0.00 66 1010.2
20260506033442 68 125 1.0 8.0 0.00 0.00 0.00 65 1009.9
20260506032428 68 208 3.0 9.0 0.00 0.00 0.00 65 1010.0
20260506031416 68 184 4.0 10.0 0.00 0.00 0.00 64 1010.0
20260506030441 68 185 2.0 6.0 0.00 0.00 0.00 63 1010.1
20260506025347 69 76 4.0 9.0 0.00 0.00 0.00 62 1010.2
20260506024333 69 131 3.0 7.0 0.00 0.00 0.00 59 1010.1
20260506023319 70 164 4.0 7.0 0.00 0.00 0.00 57 1010.1
20260506022306 71 186 1.0 7.0 0.00 0.00 0.00 56 1010.0
20260506021313 71 262 5.0 10.0 0.00 0.00 0.00 54 1010.1
20260506020238 71 175 2.0 10.0 0.00 0.00 0.00 53 1009.8
20260506015224 72 172 4.0 7.0 0.00 0.00 0.00 52 1009.9
20260506014210 72 171 4.0 7.0 0.00 0.00 0.00 51 1009.6
20260506013237 73 196 4.0 7.0 0.00 0.00 0.00 50 1009.5
20260506012202 73 201 4.0 9.0 0.00 0.00 0.00 49 1009.5
20260506011129 73 207 5.0 9.0 0.00 0.00 0.00 49 1009.5